Overview Statistics Trail Chart Weather Telemetry Raw packets
 

This is the latest recevied weather packets stored in our database for station/object CT7BNL-13. If no packets are shown the sender has not sent any weather packets the latest 10 day(s).

<< 27 28 29 30 31 >>
Time Temp. Humidity Pressure Rain* Wind** Luminosity Snow
1787950165 17.22° C 84% 1029.1 hPa 0 mm - 0 W/m² -
1787949264 17.78° C 82% 1028.9 hPa 0 mm - 0 W/m² -
1787948364 18.33° C 81% 1029 hPa 0 mm - 0 W/m² -
1787947466 18.89° C 79% 1029 hPa 0 mm - 0 W/m² -
1787946564 18.89° C 78% 1028.7 hPa 0 mm - 0 W/m² -
1787945665 18.89° C 77% 1028.7 hPa 0 mm - 0 W/m² -
1787944764 19.44° C 76% 1028.4 hPa 0 mm - 1 W/m² -
1787943865 20° C 73% 1028.3 hPa 0 mm - 7 W/m² -
1787942965 21.11° C 70% 1028.3 hPa 0 mm - 21 W/m² -
1787942065 22.22° C 67% 1028.2 hPa 0 mm - 38 W/m² -
1787941165 22.78° C 63% 1028.1 hPa 0 mm - 44 W/m² -
1787940264 23.33° C 61% 1028 hPa 0 mm - 48 W/m² -
1787939364 23.33° C 59% 1028.1 hPa 0 mm - 124 W/m² -
1787938464 24.44° C 56% 1028.4 hPa 0 mm - 170 W/m² -
1787937565 25° C 54% 1028.4 hPa 0 mm - 224 W/m² -
1787936665 23.33° C 59% 1028.3 hPa 0 mm - 316 W/m² -
1787935764 23.33° C 60% 1028.4 hPa 0 mm - 156 W/m² -
1787934864 24.44° C 53% 1028.4 hPa 0 mm - 407 W/m² -
1787933965 25.56° C 50% 1028.4 hPa 0 mm - 449 W/m² -
1787933065 25.56° C 51% 1028.3 hPa 0 mm - 504 W/m² -
1787932165 25° C 52% 1028.7 hPa 0 mm - 580 W/m² -
1787931265 25.56° C 53% 1028.6 hPa 0 mm - 687 W/m² -
1787930364 24.44° C 55% 1028.9 hPa 0 mm - 432 W/m² -
1787929465 23.89° C 57% 1028.9 hPa 0 mm - 387 W/m² -
1787928565 23.33° C 60% 1029 hPa 0 mm - 353 W/m² -

* Rain latest hour (hover to see other rain measurements)
** Current wind speed in m/s (hover to see current wind gust speed)